This is the latest recevied weather packets stored in our database for station/object WW3TRG. If no packets are shown the sender has not sent any weather packets the latest 10 day(s).
| Time | Temp. | Humidity | Pressure | Rain* | Wind** | Luminosity | Snow |
|---|---|---|---|---|---|---|---|
| 1778168688 | 15° C | 45% | 1010.3 hPa | 0 mm | - | 609 W/m² | - |
| 1778168385 | 15° C | 44% | 1010.6 hPa | 0 mm | - | 602 W/m² | - |
| 1778168082 | 14.44° C | 43% | 1010.5 hPa | 0 mm | - | 609 W/m² | - |
| 1778167778 | 15° C | 44% | 1010.4 hPa | 0 mm | - | 569 W/m² | - |
| 1778167474 | 15° C | 47% | 1010.6 hPa | 0 mm | - | 555 W/m² | - |
| 1778167170 | 14.44° C | 46% | 1010.5 hPa | 0 mm | - | 618 W/m² | - |
| 1778166866 | 13.89° C | 47% | 1010.7 hPa | 0 mm | - | 626 W/m² | - |
| 1778166564 | 14.44° C | 48% | 1010.8 hPa | 0 mm | - | 580 W/m² | - |
| 1778166261 | 13.89° C | 46% | 1010.9 hPa | 0 mm | - | 651 W/m² | - |
| 1778165957 | 14.44° C | 46% | 1010.8 hPa | 0 mm | - | 625 W/m² | - |
| 1778165653 | 13.89° C | 49% | 1011.1 hPa | 0 mm | - | 662 W/m² | - |
| 1778165350 | 14.44° C | 56% | 1011.2 hPa | 0 mm | - | 532 W/m² | - |
| 1778165047 | 13.89° C | 46% | 1011.3 hPa | 0 mm | - | 585 W/m² | - |
| 1778164744 | 13.89° C | 47% | 1011.2 hPa | 0 mm | - | 685 W/m² | - |
| 1778164441 | 13.89° C | 49% | 1011.4 hPa | 0 mm | - | 689 W/m² | - |
| 1778164137 | 13.89° C | 50% | 1011.3 hPa | 0 mm | - | 654 W/m² | - |
| 1778163833 | 13.89° C | 55% | 1011.5 hPa | 0 mm | - | 565 W/m² | - |
| 1778163531 | 13.33° C | 50% | 1011.2 hPa | 0 mm | - | 669 W/m² | - |
| 1778163227 | 13.89° C | 52% | 1011.5 hPa | 0 mm | - | 612 W/m² | - |
| 1778162923 | 13.33° C | 53% | 1011.4 hPa | 0 mm | - | 591 W/m² | - |
| 1778162620 | 12.78° C | 52% | 1011.5 hPa | 0 mm | - | 551 W/m² | - |
| 1778162318 | 12.78° C | 51% | 1011.4 hPa | 0 mm | - | 505 W/m² | - |
| 1778162014 | 12.78° C | 51% | 1011.6 hPa | 0 mm | - | 528 W/m² | - |
| 1778161712 | 12.78° C | 55% | 1011.5 hPa | 0 mm | - | 486 W/m² | - |
| 1778161408 | 12.78° C | 54% | 1011.8 hPa | 0 mm | - | 401 W/m² | - |
* Rain latest hour (hover to see other rain measurements)
** Current wind speed in m/s (hover to see current wind gust speed)